Theta_e
332 334 335 340 341 342 343 344 347 352 352 352 349 349 349 351 352 355 355 353 352 359 354 348 354 349 350 350 347 349 346 344 348 345 343 344 347 349 349 348 348 349 351
332 334 336 342 341 341 341 346 351 354 352 352 350 350 352 348 346 352 350 356 356 357 353 351 353 347 341 349 345 343 344 344 346 339 337 332 337 343 347 347 349 349 351
333 334 334 339 342 342 343 345 351 351 351 350 353 354 354 342 339 334 345 357 360 355 341 343 353 351 350 351 345 344 347 339 345 343 336 329 325 333 341 345 347 347 347
334 335 336 339 342 343 346 346 354 352 349 353 354 346 345 345 347 345 350 358 361 360 355 354 356 354 354 350 347 344 347 345 339 344 347 341 336 328 326 337 343 345 346
334 336 336 338 344 346 347 348 354 353 351 354 354 351 346 349 352 355 356 359 359 360 360 358 355 356 355 353 345 344 347 347 340 338 342 342 341 337 332 326 329 334 339
334 335 339 339 341 348 348 350 351 355 354 354 356 356 351 349 351 351 353 355 355 345 353 360 357 357 356 349 346 345 345 348 347 344 337 340 336 336 337 333 329 328 330
333 333 335 338 338 344 348 351 351 353 357 356 356 357 358 352 353 351 348 351 353 349 351 356 357 355 357 355 352 347 348 344 343 346 341 340 336 340 338 336 333 330 333
333 334 333 338 338 343 346 351 352 352 355 359 356 358 358 358 355 353 351 354 354 354 358 357 359 359 359 357 354 352 347 348 345 342 342 341 340 339 339 337 334 330 333
334 333 334 338 339 341 345 350 352 354 356 354 358 359 358 359 356 353 353 355 358 347 337 349 357 360 359 357 356 350 351 349 346 343 338 337 336 336 338 341 340 335 325
334 334 335 338 339 341 346 353 354 356 357 356 359 360 360 360 360 360 357 351 355 353 348 351 357 358 360 358 357 352 352 347 343 340 338 335 334 333 336 340 338 334 330
332 334 336 338 338 341 352 353 355 356 356 356 357 358 361 362 362 359 360 355 358 357 356 357 357 357 359 358 356 354 354 350 344 344 344 338 335 335 336 332 335 337 336
330 330 334 338 337 340 347 352 355 356 357 356 357 358 360 361 356 356 357 359 357 359 358 360 359 359 361 359 357 355 355 351 345 343 343 341 343 335 336 336 332 329 334
332 332 326 336 337 339 342 350 351 355 357 356 357 359 358 355 354 358 358 360 358 358 362 360 362 360 360 361 360 358 356 350 336 336 335 335 336 338 339 333 331 329 329
328 327 325 336 339 343 346 347 349 355 354 350 349 351 352 353 354 354 355 356 360 360 360 362 361 362 363 363 362 360 352 337 335 337 338 338 337 335 338 339 336 333 330
325 327 338 342 345 349 351 354 357 357 352 348 345 349 348 350 349 348 348 356 359 362 360 361 364 364 363 363 361 359 338 334 334 335 336 335 338 339 339 341 338 336 330
338 346 349 351 351 352 353 356 355 354 352 355 351 354 354 354 355 357 359 359 359 360 360 360 361 360 363 350 344 345 338 336 336 336 332 335 336 338 339 339 343 339 333
342 345 348 349 351 354 356 353 357 357 352 353 355 354 353 356 358 360 361 361 358 361 359 358 358 357 357 348 341 341 340 335 332 333 335 329 336 336 335 337 339 338 336
343 344 348 351 354 354 358 358 358 356 355 354 355 359 359 359 359 357 356 357 359 360 360 361 361 360 360 343 338 340 339 339 337 334 339 337 332 334 334 336 334 330 329
345 346 351 351 352 356 358 358 357 357 359 359 359 361 361 359 358 356 350 350 350 350 349 352 354 353 355 337 333 335 337 339 339 337 333 333 332 333 334 334 332 331 330
348 349 351 354 356 358 359 358 358 359 356 357 358 359 354 348 346 345 346 349 350 348 352 349 350 347 349 334 329 336 340 338 338 338 339 334 334 329 329 334 333 329 329
343 349 350 351 352 354 354 352 351 350 354 357 353 348 345 344 345 345 350 349 350 351 350 349 350 352 349 349 326 328 343 340 339 341 340 339 327 325 323 327 336 332 330
333 343 345 345 346 350 349 347 348 354 353 350 348 344 342 346 350 349 349 349 350 346 345 347 342 337 336 325 325 322 325 328 338 339 344 344 325 320 320 322 329 328 329
336 339 344 343 346 347 349 347 352 352 349 349 344 343 344 345 347 346 347 347 348 348 345 337 330 332 339 337 323 323 324 325 333 341 330 324 324 317 320 321 324 325 327
338 343 343 342 345 347 355 355 355 353 352 350 345 343 344 344 348 351 350 344 343 335 334 331 331 333 334 339 337 338 335 327 328 331 332 331 329 324 326 325 324 329 330
340 339 335 332 345 356 357 358 358 356 353 353 346 346 347 346 345 347 346 341 333 328 329 331 334 336 333 319 313 316 323 323 325 320 332 334 331 331 330 331 331 329 329
335 330 329 335 349 349 349 350 350 351 346 346 343 336 339 336 336 335 334 323 316 313 310 308 318 328 312 305 302 301 303 305 308 325 331 333 333 331 330 329 330 329 330
Wind_Speed
9 8 8 12 16 9 9 7 10 7 7 2 2 3 3 6 4 6 9 7 8 6 6 3 3 2 4 2 4 3 6 4 5 4 3 1 2 2 4 4 4 4 4
11 10 10 13 17 14 10 8 11 8 7 4 4 2 3 4 4 5 5 6 11 7 6 3 1 2 2 1 3 4 3 2 4 5 3 3 3 2 4 3 4 5 4
15 14 10 15 16 15 14 11 10 11 9 8 3 3 4 3 3 2 3 3 7 8 7 5 4 5 2 3 3 4 6 4 3 1 5 3 3 2 1 4 4 5 4
15 17 13 17 18 17 15 14 11 10 8 7 3 4 5 4 3 4 3 4 6 7 7 6 5 5 3 3 3 3 4 4 4 2 3 2 6 4 1 1 3 4 5
19 21 19 16 19 18 17 14 12 11 8 7 6 5 4 3 2 1 7 5 3 2 5 6 5 4 3 4 3 4 4 3 4 3 2 2 2 3 4 2 1 1 3
20 19 21 18 17 19 17 15 15 15 10 8 7 7 8 5 1 1 4 4 3 2 2 5 4 3 3 3 3 4 4 3 3 2 2 3 4 4 4 3 2 5 3
18 17 17 19 14 21 19 16 16 13 13 12 9 8 7 6 5 4 4 5 5 2 3 4 3 2 3 4 3 4 2 3 2 1 2 1 4 3 3 4 3 4 2
16 18 13 19 15 21 19 19 17 14 14 12 12 7 7 3 4 4 3 2 5 5 6 6 6 6 5 4 5 3 3 3 4 5 3 2 2 3 3 5 5 2 3
16 16 11 19 15 18 18 19 17 14 14 12 7 7 6 6 4 5 5 3 3 5 3 6 6 6 6 6 6 4 4 3 4 4 4 3 3 3 3 4 7 6 5
17 17 14 20 16 17 13 17 17 16 13 11 8 6 6 5 5 3 6 6 5 5 7 7 6 6 7 7 7 5 5 6 4 4 4 3 3 2 1 4 4 3 4
15 15 16 19 19 18 15 15 14 13 9 8 7 8 7 7 6 5 4 6 4 7 6 7 7 7 7 7 6 7 6 7 6 4 4 7 3 2 2 1 2 4 3
20 12 8 19 19 19 17 17 15 13 11 8 8 9 8 7 5 5 6 5 4 4 6 7 7 7 7 8 8 8 7 6 6 3 2 3 3 4 3 2 2 4 4
39 32 12 11 18 17 15 15 14 13 11 9 8 11 9 8 7 7 7 6 7 7 7 7 7 7 8 8 9 10 8 5 12 9 7 6 9 8 5 3 3 2 2
39 27 7 12 14 14 15 13 10 11 9 8 8 8 7 7 6 6 7 6 7 7 7 7 8 8 9 9 8 8 7 8 8 6 6 4 2 1 7 6 5 3 2
11 13 12 14 14 12 10 10 10 12 12 8 7 7 7 5 5 5 5 6 5 4 6 5 6 7 7 7 9 8 13 11 7 4 2 9 15 21 10 5 3 5 3
15 17 18 17 16 15 13 12 11 10 9 8 8 7 7 7 7 6 4 2 3 4 4 6 6 7 7 10 6 15 15 15 10 15 15 12 10 7 14 7 7 6 8
17 17 17 15 14 14 13 12 9 8 8 8 7 7 7 6 5 5 5 6 5 5 6 6 6 7 7 10 12 25 14 11 17 17 7 9 4 7 6 9 12 10 11
17 16 15 13 13 12 12 11 10 9 8 7 7 7 7 6 6 5 5 5 4 5 5 6 6 6 6 8 13 20 14 11 11 6 7 8 6 6 7 6 6 7 6
14 14 15 14 14 12 12 12 10 8 7 7 7 7 6 6 5 4 2 2 3 3 3 4 5 5 7 1 15 13 7 9 11 5 6 6 8 10 13 7 7 6 7
13 14 15 14 13 13 12 12 9 8 7 7 6 6 6 7 6 5 4 2 1 3 3 6 5 7 7 7 14 13 6 8 6 6 6 13 10 13 14 10 8 7 9
22 17 16 13 11 9 9 8 8 8 7 7 7 7 7 7 6 4 2 0 3 4 5 6 6 6 7 8 14 19 6 5 4 4 3 4 12 12 14 14 10 9 6
25 15 14 10 8 9 8 8 8 7 8 8 7 7 6 3 4 4 0 3 4 5 7 4 4 4 4 10 10 4 8 8 2 4 4 4 13 15 13 9 13 11 8
22 11 13 12 8 9 8 8 8 9 8 8 7 6 5 4 3 2 4 4 5 4 4 1 2 4 3 4 7 9 8 7 3 2 4 1 5 11 10 15 13 11 5
9 13 16 14 11 7 6 8 8 8 8 8 7 3 4 4 4 3 3 3 3 2 2 2 2 3 3 5 8 6 4 4 4 6 4 4 6 7 6 4 7 6 6
11 11 12 8 8 8 11 9 8 8 6 6 6 4 2 1 2 2 3 2 2 0 2 4 3 5 7 2 2 3 4 4 7 7 2 1 2 3 4 4 5 6 6
6 7 9 11 13 12 6 7 7 7 6 5 4 3 3 2 2 4 5 4 8 11 10 10 9 7 7 4 6 5 5 7 8 2 3 4 5 5 5 6 6 6 8
Wind_Direction
155 153 161 145 142 139 147 148 145 151 144 147 166 230 149 148 157 168 190 203 242 198 137 258 48 50 100 30 135 103 95 66 119 96 76 71 201 187 214 167 167 168 184
152 163 175 146 153 158 159 146 150 153 161 166 199 140 128 143 190 204 184 188 210 126 153 141 267 186 172 290 112 123 108 142 200 133 129 99 358 272 230 146 177 187 186
161 169 176 161 159 162 167 165 165 171 170 179 177 165 113 84 180 237 205 204 158 140 158 177 205 177 188 191 157 156 138 161 252 234 142 135 181 157 212 199 196 176 179
162 174 177 172 167 172 172 171 160 170 183 185 172 173 166 168 222 196 179 167 175 164 177 180 157 139 143 177 189 170 129 130 201 234 244 236 143 159 158 76 201 177 181
178 176 185 177 176 171 173 175 163 170 185 179 179 194 189 188 230 141 141 174 178 167 155 153 152 149 157 170 152 120 127 140 140 211 154 118 72 105 115 142 179 314 198
181 183 182 185 171 172 173 174 170 175 176 183 187 189 194 206 106 149 134 153 141 198 218 164 158 156 161 160 169 142 137 155 146 169 179 147 165 182 150 136 169 167 244
180 187 179 179 170 172 174 172 175 178 178 182 186 192 204 203 177 147 169 159 178 234 243 155 173 182 212 173 166 166 161 168 151 216 185 182 211 169 173 120 173 151 208
183 181 183 172 170 171 170 171 175 179 186 178 192 182 187 198 176 181 213 124 200 160 192 174 184 199 214 191 168 176 207 213 180 198 205 195 225 166 168 166 147 127 195
177 175 171 167 169 168 167 168 172 178 182 188 170 170 173 182 189 202 222 167 145 143 144 195 205 199 200 201 181 190 213 211 196 209 214 221 231 180 229 183 179 173 175
170 177 167 167 162 166 158 163 171 175 179 176 176 150 172 181 195 197 232 181 195 175 178 198 203 190 187 200 184 196 222 196 207 204 219 242 259 285 265 185 175 178 154
175 170 172 164 157 158 150 160 164 165 169 171 149 159 161 184 201 209 232 215 175 176 207 195 193 191 193 205 201 206 214 205 202 197 212 233 242 272 346 178 191 199 186
45 347 190 159 157 155 153 162 163 166 168 163 147 172 173 188 171 210 212 219 219 221 195 193 199 200 205 206 207 214 215 192 201 246 5 318 289 287 265 274 261 192 187
133 224 236 194 156 153 152 157 163 162 159 161 155 171 181 170 195 201 202 207 211 218 221 208 206 215 219 217 215 212 201 113 91 95 79 49 19 344 314 248 254 271 230
175 202 165 199 143 143 149 152 143 144 132 132 134 143 155 165 173 173 190 226 221 207 217 217 216 217 223 227 229 216 132 110 112 114 96 104 130 305 289 323 287 227 257
187 178 167 143 131 127 123 123 123 130 133 135 144 168 171 168 191 212 233 238 225 222 226 230 240 236 233 235 237 229 102 88 58 39 99 255 240 184 208 178 281 269 211
119 124 121 124 131 132 131 124 124 128 129 129 135 129 146 175 188 189 187 217 252 254 251 252 248 257 267 267 326 68 97 99 304 253 214 212 247 243 227 216 244 272 239
130 126 125 126 126 125 125 125 123 121 122 123 140 159 163 169 191 205 218 229 240 245 257 269 266 265 265 268 134 142 175 182 202 232 207 196 227 211 226 219 237 249 251
131 123 125 122 122 128 124 128 124 124 135 158 168 170 173 187 199 201 218 234 226 232 241 247 247 250 258 248 161 170 181 198 215 232 208 218 222 198 218 205 198 229 241
138 130 130 132 132 136 132 128 130 145 149 169 177 163 170 179 183 179 140 67 46 345 295 292 303 295 292 174 174 171 197 217 233 215 168 180 211 212 218 201 188 226 243
131 130 125 123 125 133 134 136 153 146 140 134 144 135 130 119 104 103 82 55 331 292 305 305 302 289 284 205 186 185 181 208 229 226 217 204 199 194 205 208 197 200 237
311 122 118 123 129 127 128 128 128 133 148 126 120 105 108 113 126 125 129 14 291 303 301 305 302 310 301 304 209 203 169 198 213 238 240 216 208 207 203 201 206 214 190
299 110 115 119 122 118 117 129 141 152 129 125 123 119 122 116 134 131 197 288 287 288 290 298 326 304 340 28 17 117 286 5 283 209 212 224 202 213 219 202 225 213 195
242 133 129 134 134 136 144 155 166 136 135 130 137 140 141 129 149 175 256 279 272 268 299 135 340 341 33 56 100 143 210 242 238 257 127 277 235 220 218 216 216 204 199
174 140 143 153 147 142 137 143 133 135 134 139 137 138 152 205 232 236 238 263 321 15 38 349 320 329 18 27 10 6 342 314 287 271 248 234 221 200 210 213 216 205 208
144 127 122 118 103 119 112 107 106 112 128 134 137 179 168 229 297 241 251 45 186 87 345 10 10 25 39 14 350 34 2 327 312 319 246 243 238 249 218 215 206 215 213
131 99 69 68 81 49 53 82 93 92 88 84 69 75 46 39 20 49 43 40 62 66 85 84 62 60 86 70 37 5 312 292 305 298 267 247 223 232 254 256 241 213 217